* Astronomy

Members Login
Username 
 
Password 
    Remember Me  
Post Info TOPIC: Asteroid 2010 VZ98


L

Posts: 131433
Date:
Asteroid 2010 VZ98
Permalink  
 


Orbital elements:
2010 VZ98
Epoch 2011 Aug. 27.0 TT = JDT 2455800.5                 MPC
M 356.61270              (2000.0)            P               Q
n   0.00069096     Peri.  306.09033     +0.44389071     -0.89335834
a 126.7170625      Node   117.41518     +0.84534342     +0.39164579
e   0.7187668      Incl.    4.50981     +0.29724662     +0.22028267
P  1430            H    4.9           G   0.15           U   6

MPEC 2011 - Q57

 

Diameter: 305 - 680 km



__________________
Page 1 of 1  sorted by
Quick Reply

Please log in to post quick replies.



Create your own FREE Forum
Report Abuse
Powered by ActiveBoard